Time,TemperatureF,DewpointF,PressureIn,WindDirection,WindDirectionDegrees,WindSpeedMPH,WindSpeedGustMPH,Humidity,HourlyPrecipIn,Conditions,Clouds,dailyrainin,SoftwareType,DateUTC
2013-01-09 00:00:00,32.5,21.9,30.50,WSW,248,4.0,0.0,65,0.00,,SCT049,0.00,VWS V13.01,2013-01-09 05:00:00,
2013-01-09 00:02:00,32.3,21.9,30.50,WSW,248,4.0,0.0,65,0.00,,SCT049,0.00,VWS V13.01,2013-01-09 05:02:00,
2013-01-09 00:03:00,32.3,21.9,30.50,WSW,248,4.0,0.0,65,0.00,,SCT049,0.00,VWS V13.01,2013-01-09 05:03:00,
2013-01-09 00:08:00,32.3,21.9,30.49,WSW,248,4.0,0.0,65,0.00,,SCT049,0.00,VWS V13.01,2013-01-09 05:08:00,
2013-01-09 00:13:00,32.1,22.0,30.49,WSW,248,4.0,0.0,66,0.00,,SCT049,0.00,VWS V13.01,2013-01-09 05:13:00,
2013-01-09 00:18:00,32.1,22.0,30.49,WSW,248,4.0,0.0,66,0.00,,SCT049,0.00,VWS V13.01,2013-01-09 05:18:00,
2013-01-09 00:23:00,32.3,22.2,30.48,WSW,248,4.0,0.0,66,0.00,,SCT049,0.00,VWS V13.01,2013-01-09 05:23:00,
2013-01-09 00:28:00,32.3,22.4,30.49,WSW,248,4.0,0.0,66,0.00,,SCT049,0.00,VWS V13.01,2013-01-09 05:28:00,
2013-01-09 00:33:00,32.5,22.4,30.48,WSW,248,4.0,0.0,66,0.00,,SCT049,0.00,VWS V13.01,2013-01-09 05:33:00,
2013-01-09 00:38:00,32.5,22.4,30.48,WSW,248,4.0,0.0,66,0.00,,SCT049,0.00,VWS V13.01,2013-01-09 05:38:00,
2013-01-09 00:43:00,32.5,22.4,30.48,WSW,248,4.0,0.0,66,0.00,,CLR,0.00,VWS V13.01,2013-01-09 05:43:00,
2013-01-09 00:48:00,32.7,22.4,30.48,WSW,248,4.0,0.0,66,0.00,,CLR,0.00,VWS V13.01,2013-01-09 05:48:00,
2013-01-09 00:53:00,32.5,22.4,30.48,WSW,248,4.0,0.0,66,0.00,,CLR,0.00,VWS V13.01,2013-01-09 05:53:00,
2013-01-09 00:58:00,32.5,22.6,30.48,WSW,248,4.0,0.0,66,0.00,,CLR,0.00,VWS V13.01,2013-01-09 05:58:00,
2013-01-09 01:03:00,32.7,22.6,30.48,WSW,248,4.0,0.0,66,0.00,,CLR,0.00,VWS V13.01,2013-01-09 06:03:00,
2013-01-09 01:08:00,32.7,22.6,30.48,WSW,248,4.0,0.0,66,0.00,,CLR,0.00,VWS V13.01,2013-01-09 06:08:00,
2013-01-09 01:13:00,32.7,22.4,30.48,WSW,248,4.0,0.0,66,0.00,,CLR,0.00,VWS V13.01,2013-01-09 06:13:00,
2013-01-09 01:19:00,32.5,22.4,30.48,WSW,248,4.0,0.0,66,0.00,,CLR,0.00,VWS V13.01,2013-01-09 06:19:00,
2013-01-09 01:24:00,32.5,22.4,30.48,WSW,248,4.0,0.0,66,0.00,,CLR,0.00,VWS V13.01,2013-01-09 06:24:00,
2013-01-09 01:29:00,32.5,22.4,30.48,WSW,248,4.0,0.0,66,0.00,,CLR,0.00,VWS V13.01,2013-01-09 06:29:00,
2013-01-09 01:34:00,32.5,22.2,30.48,WSW,248,4.0,0.0,66,0.00,,CLR,0.00,VWS V13.01,2013-01-09 06:34:00,
2013-01-09 01:39:00,32.3,22.2,30.48,WSW,248,4.0,0.0,66,0.00,,CLR,0.00,VWS V13.01,2013-01-09 06:39:00,
2013-01-09 01:44:00,32.3,22.2,30.48,WSW,248,4.0,0.0,66,0.00,,CLR,0.00,VWS V13.01,2013-01-09 06:44:00,
2013-01-09 01:49:00,32.3,22.2,30.48,WSW,248,4.0,0.0,66,0.00,,CLR,0.00,VWS V13.01,2013-01-09 06:49:00,
2013-01-09 01:54:00,32.3,22.0,30.48,WSW,248,4.0,0.0,66,0.00,,CLR,0.00,VWS V13.01,2013-01-09 06:54:00,
2013-01-09 01:59:00,32.3,22.4,30.48,WSW,248,4.0,0.0,66,0.00,,CLR,0.00,VWS V13.01,2013-01-09 06:59:00,
2013-01-09 02:04:00,32.1,22.4,30.49,WSW,248,4.0,0.0,67,0.00,,CLR,0.00,VWS V13.01,2013-01-09 07:04:00,
2013-01-09 02:09:00,32.1,22.6,30.49,WSW,248,4.0,0.0,67,0.00,,CLR,0.00,VWS V13.01,2013-01-09 07:09:00,
2013-01-09 02:14:00,32.1,22.6,30.49,WSW,248,4.0,0.0,67,0.00,,CLR,0.00,VWS V13.01,2013-01-09 07:14:00,
2013-01-09 02:19:00,32.3,22.8,30.49,WSW,248,4.0,0.0,67,0.00,,CLR,0.00,VWS V13.01,2013-01-09 07:19:00,
2013-01-09 02:24:00,32.3,22.8,30.50,WSW,248,4.0,0.0,67,0.00,,CLR,0.00,VWS V13.01,2013-01-09 07:24:00,
2013-01-09 02:29:00,32.3,23.0,30.50,WSW,248,4.0,0.0,67,0.00,,CLR,0.00,VWS V13.01,2013-01-09 07:29:00,
2013-01-09 02:34:00,32.7,23.0,30.50,WSW,248,4.0,0.0,67,0.00,,SCT039,0.00,VWS V13.01,2013-01-09 07:34:00,
2013-01-09 02:39:00,32.7,23.0,30.51,WSW,248,4.0,0.0,67,0.00,,SCT039,0.00,VWS V13.01,2013-01-09 07:39:00,
2013-01-09 02:44:00,32.7,22.6,30.50,WSW,248,4.0,0.0,67,0.00,,OVC039,0.00,VWS V13.01,2013-01-09 07:44:00,
2013-01-09 02:49:00,32.7,22.6,30.50,WSW,248,4.0,0.0,66,0.00,,OVC039,0.00,VWS V13.01,2013-01-09 07:49:00,
2013-01-09 02:54:00,32.7,22.4,30.50,WSW,248,4.0,0.0,66,0.00,,SCT039,0.00,VWS V13.01,2013-01-09 07:54:00,
2013-01-09 02:59:00,32.7,22.6,30.50,WSW,248,4.0,0.0,66,0.00,,SCT039,0.00,VWS V13.01,2013-01-09 07:59:00,
2013-01-09 03:04:00,32.3,22.6,30.50,WSW,248,4.0,0.0,67,0.00,,SCT039,0.00,VWS V13.01,2013-01-09 08:04:00,
2013-01-09 03:09:00,32.3,22.4,30.50,WSW,248,4.0,0.0,67,0.00,,SCT039,0.00,VWS V13.01,2013-01-09 08:09:00,
2013-01-09 03:14:00,32.3,22.4,30.49,WSW,248,4.0,0.0,67,0.00,,SCT039,0.00,VWS V13.01,2013-01-09 08:14:00,
2013-01-09 03:19:00,32.3,22.3,30.49,WSW,248,4.0,0.0,67,0.00,,SCT039,0.00,VWS V13.01,2013-01-09 08:19:00,
2013-01-09 03:24:00,32.3,22.1,30.50,WSW,248,4.0,0.0,67,0.00,,SCT039,0.00,VWS V13.01,2013-01-09 08:24:00,
2013-01-09 03:29:00,32.3,22.5,30.50,WSW,248,4.0,0.0,67,0.00,,SCT039,0.00,VWS V13.01,2013-01-09 08:29:00,
2013-01-09 03:34:00,32.3,22.5,30.49,WSW,248,4.0,0.0,67,0.00,,CLR,0.00,VWS V13.01,2013-01-09 08:34:00,
2013-01-09 03:39:00,32.3,22.5,30.50,WSW,248,4.0,0.0,67,0.00,,CLR,0.00,VWS V13.01,2013-01-09 08:39:00,
2013-01-09 03:44:00,31.8,22.5,30.49,SW,225,4.0,0.0,68,0.00,,CLR,0.00,VWS V13.01,2013-01-09 08:44:00,
2013-01-09 03:49:00,31.8,22.5,30.49,SW,225,4.0,0.0,68,0.00,,CLR,0.00,VWS V13.01,2013-01-09 08:49:00,
2013-01-09 03:54:00,31.8,22.5,30.50,SW,225,4.0,0.0,68,0.00,,CLR,0.00,VWS V13.01,2013-01-09 08:54:00,
2013-01-09 03:59:00,31.8,22.6,30.50,SW,225,4.0,0.0,68,0.00,,CLR,0.00,VWS V13.01,2013-01-09 08:59:00,
2013-01-09 04:04:00,31.6,22.6,30.50,SW,225,4.0,0.0,68,0.00,,CLR,0.00,VWS V13.01,2013-01-09 09:04:00,
2013-01-09 04:09:00,31.6,22.6,30.50,SW,225,4.0,0.0,69,0.00,,CLR,0.00,VWS V13.01,2013-01-09 09:09:00,
2013-01-09 04:14:00,31.2,22.2,30.50,SW,225,4.0,0.0,69,0.00,,CLR,0.00,VWS V13.01,2013-01-09 09:14:00,
2013-01-09 04:19:00,31.2,22.6,30.50,SW,225,4.0,0.0,69,0.00,,CLR,0.00,VWS V13.01,2013-01-09 09:19:00,
2013-01-09 04:24:00,31.2,22.6,30.50,SW,225,4.0,0.0,69,0.00,,CLR,0.00,VWS V13.01,2013-01-09 09:24:00,
2013-01-09 04:29:00,31.2,22.6,30.50,SW,225,4.0,0.0,70,0.00,,CLR,0.00,VWS V13.01,2013-01-09 09:29:00,
2013-01-09 04:34:00,31.2,23.0,30.50,SW,225,4.0,0.0,70,0.00,,CLR,0.00,VWS V13.01,2013-01-09 09:34:00,
2013-01-09 04:39:00,31.6,23.0,30.49,SW,225,4.0,0.0,70,0.00,,CLR,0.00,VWS V13.01,2013-01-09 09:39:00,
2013-01-09 04:44:00,31.6,23.0,30.50,SW,225,4.0,0.0,70,0.00,,SCT029,0.00,VWS V13.01,2013-01-09 09:44:00,
2013-01-09 04:49:00,31.6,23.0,30.50,SW,225,4.0,0.0,70,0.00,,SCT029,0.00,VWS V13.01,2013-01-09 09:49:00,
2013-01-09 04:54:00,31.6,23.0,30.49,SW,225,4.0,0.0,70,0.00,,SCT029,0.00,VWS V13.01,2013-01-09 09:54:00,
2013-01-09 04:59:00,31.6,23.1,30.49,SW,225,4.0,0.0,70,0.00,,SCT029,0.00,VWS V13.01,2013-01-09 09:59:00,
2013-01-09 05:04:00,31.8,23.1,30.49,SW,225,4.0,0.0,70,0.00,,SCT029,0.00,VWS V13.01,2013-01-09 10:04:00,
2013-01-09 05:09:00,31.8,23.1,30.49,SW,225,4.0,0.0,70,0.00,,SCT029,0.00,VWS V13.01,2013-01-09 10:09:00,
2013-01-09 05:14:00,31.8,23.1,30.49,SW,225,4.0,0.0,70,0.00,,SCT029,0.00,VWS V13.01,2013-01-09 10:14:00,
2013-01-09 05:19:00,31.8,23.1,30.49,SW,225,4.0,0.0,70,0.00,,SCT029,0.00,VWS V13.01,2013-01-09 10:19:00,
2013-01-09 05:24:00,31.8,23.1,30.50,SW,225,4.0,0.0,70,0.00,,SCT029,0.00,VWS V13.01,2013-01-09 10:24:00,
2013-01-09 05:29:00,31.8,23.1,30.50,SW,225,4.0,0.0,70,0.00,,SCT029,0.00,VWS V13.01,2013-01-09 10:29:00,
2013-01-09 05:34:00,32.1,23.3,30.50,SW,225,4.0,0.0,69,0.00,,BKN033,0.00,VWS V13.01,2013-01-09 10:34:00,
2013-01-09 05:39:00,32.3,23.5,30.50,SW,225,4.0,0.0,69,0.00,,BKN033,0.00,VWS V13.01,2013-01-09 10:39:00,
2013-01-09 05:44:00,32.5,24.0,30.50,SW,225,4.0,0.0,69,0.00,,OVC033,0.00,VWS V13.01,2013-01-09 10:44:00,
2013-01-09 05:49:00,32.7,24.0,30.50,SW,225,4.0,0.0,70,0.00,,OVC033,0.00,VWS V13.01,2013-01-09 10:49:00,
2013-01-09 05:54:00,32.5,23.8,30.50,SW,225,4.0,0.0,70,0.00,,OVC039,0.00,VWS V13.01,2013-01-09 10:54:00,
2013-01-09 05:59:00,32.5,23.8,30.50,SW,225,4.0,0.0,70,0.00,,OVC039,0.00,VWS V13.01,2013-01-09 10:59:00,
2013-01-09 06:04:00,32.3,23.6,30.50,SW,225,4.0,0.0,70,0.00,,OVC039,0.00,VWS V13.01,2013-01-09 11:04:00,
2013-01-09 06:09:00,32.3,23.6,30.50,SW,225,4.0,0.0,70,0.00,,OVC039,0.00,VWS V13.01,2013-01-09 11:09:00,
2013-01-09 06:14:00,32.3,23.8,30.50,SW,225,4.0,0.0,70,0.00,,OVC039,0.00,VWS V13.01,2013-01-09 11:14:00,
2013-01-09 06:19:00,32.5,23.8,30.50,SW,225,4.0,0.0,70,0.00,,OVC039,0.00,VWS V13.01,2013-01-09 11:19:00,
2013-01-09 06:24:00,32.7,24.0,30.50,SW,225,4.0,0.0,70,0.00,,OVC039,0.00,VWS V13.01,2013-01-09 11:24:00,
2013-01-09 06:29:00,32.7,23.7,30.50,SW,225,4.0,0.0,70,0.00,,OVC039,0.00,VWS V13.01,2013-01-09 11:29:00,
2013-01-09 06:34:00,32.7,23.9,30.50,SW,225,4.0,0.0,70,0.00,,OVC039,0.00,VWS V13.01,2013-01-09 11:34:00,
2013-01-09 06:39:00,32.7,24.0,30.50,SW,225,4.0,0.0,70,0.00,,OVC039,0.00,VWS V13.01,2013-01-09 11:39:00,
2013-01-09 06:44:00,32.7,24.0,30.51,SW,225,4.0,0.0,70,0.00,,OVC039,0.00,VWS V13.01,2013-01-09 11:44:00,
2013-01-09 06:49:00,33.0,23.6,30.50,SW,225,4.0,0.0,69,0.00,,OVC039,0.00,VWS V13.01,2013-01-09 11:49:00,
2013-01-09 06:54:00,33.0,23.6,30.50,SW,225,4.0,0.0,68,0.00,,OVC075,0.00,VWS V13.01,2013-01-09 11:54:00,
2013-01-09 06:59:00,33.0,23.6,30.50,SW,225,4.0,0.0,68,0.00,,OVC075,0.00,VWS V13.01,2013-01-09 11:59:00,
2013-01-09 07:04:00,33.0,23.6,30.50,NW,315,2.6,0.0,69,0.00,,OVC075,0.00,VWS V13.01,2013-01-09 12:04:00,
2013-01-09 07:09:00,32.9,23.9,30.51,NW,315,2.6,0.0,69,0.00,,OVC075,0.00,VWS V13.01,2013-01-09 12:09:00,
2013-01-09 07:14:00,32.9,23.7,30.51,NW,315,2.6,0.0,69,0.00,,OVC075,0.00,VWS V13.01,2013-01-09 12:14:00,
2013-01-09 07:19:00,32.7,23.8,30.51,NW,315,2.6,0.0,69,0.00,,OVC075,0.00,VWS V13.01,2013-01-09 12:19:00,
2013-01-09 07:24:00,32.1,23.8,30.51,NW,315,2.6,0.0,70,0.00,,OVC075,0.00,VWS V13.01,2013-01-09 12:24:00,
2013-01-09 07:30:00,32.1,23.8,30.51,NW,315,2.6,0.0,71,0.00,,OVC075,0.00,VWS V13.01,2013-01-09 12:30:00,
2013-01-09 07:35:00,32.1,23.8,30.52,NW,315,2.6,0.0,71,0.00,,BKN075,0.00,VWS V13.01,2013-01-09 12:35:00,
2013-01-09 07:40:00,32.1,23.8,30.52,NW,315,2.6,0.0,71,0.00,,BKN075,0.00,VWS V13.01,2013-01-09 12:40:00,
2013-01-09 07:45:00,32.1,23.8,30.52,NW,315,2.6,0.0,71,0.00,,BKN075,0.00,VWS V13.01,2013-01-09 12:45:00,
2013-01-09 07:50:00,32.1,24.1,30.53,NW,315,2.6,0.0,72,0.00,,BKN075,0.00,VWS V13.01,2013-01-09 12:50:00,
2013-01-09 07:55:00,32.1,24.3,30.52,NW,315,2.6,0.0,72,0.00,,SCT043,0.00,VWS V13.01,2013-01-09 12:55:00,
2013-01-09 08:00:00,32.3,24.3,30.52,NW,315,2.6,0.0,72,0.00,,SCT043,0.00,VWS V13.01,2013-01-09 13:00:00,
2013-01-09 08:05:00,32.3,24.5,30.52,ENE,68,2.6,0.0,72,0.00,,SCT043,0.00,VWS V13.01,2013-01-09 13:05:00,
2013-01-09 08:10:00,32.5,24.7,30.52,ENE,68,2.6,0.0,72,0.00,,SCT043,0.00,VWS V13.01,2013-01-09 13:10:00,
2013-01-09 08:15:00,32.7,25.0,30.52,ENE,68,2.6,0.0,72,0.00,,SCT043,0.00,VWS V13.01,2013-01-09 13:15:00,
2013-01-09 08:20:00,33.0,25.0,30.53,ENE,68,2.6,0.0,72,0.00,,SCT043,0.00,VWS V13.01,2013-01-09 13:20:00,
2013-01-09 08:25:00,33.4,25.2,30.53,ENE,68,2.6,0.0,71,0.00,,SCT043,0.00,VWS V13.01,2013-01-09 13:25:00,
2013-01-09 08:30:00,33.4,25.8,30.53,ENE,68,2.6,0.0,71,0.00,,SCT043,0.00,VWS V13.01,2013-01-09 13:30:00,
2013-01-09 08:35:00,34.3,26.2,30.54,South,180,2.6,0.0,72,0.00,,BKN045,0.00,VWS V13.01,2013-01-09 13:35:00,
2013-01-09 08:40:00,34.7,26.7,30.54,South,180,2.6,0.0,72,0.00,,BKN045,0.00,VWS V13.01,2013-01-09 13:40:00,
2013-01-09 08:45:00,34.7,27.3,30.54,South,180,2.6,0.0,72,0.00,,SCT035,0.00,VWS V13.01,2013-01-09 13:45:00,
2013-01-09 08:50:00,35.4,28.1,30.54,South,180,2.6,0.0,72,0.00,,SCT035,0.00,VWS V13.01,2013-01-09 13:50:00,
2013-01-09 08:55:00,35.4,29.5,30.54,South,180,2.6,0.0,72,0.00,,SCT045,0.00,VWS V13.01,2013-01-09 13:55:00,
2013-01-09 09:00:00,35.4,30.2,30.54,South,180,2.6,0.0,72,0.00,,SCT045,0.00,VWS V13.01,2013-01-09 14:00:00,
2013-01-09 09:05:00,39.3,27.3,30.54,South,180,2.6,0.0,72,0.00,,SCT045,0.00,VWS V13.01,2013-01-09 14:05:00,
2013-01-09 09:10:00,40.2,31.0,30.54,South,180,2.6,0.0,70,0.00,,SCT045,0.00,VWS V13.01,2013-01-09 14:10:00,
2013-01-09 09:15:00,40.4,31.0,30.55,South,180,2.6,0.0,69,0.00,,SCT045,0.00,VWS V13.01,2013-01-09 14:15:00,
2013-01-09 09:20:00,39.3,30.9,30.55,South,180,2.6,0.0,72,0.00,,SCT045,0.00,VWS V13.01,2013-01-09 14:20:00,
2013-01-09 09:25:00,40.4,30.9,30.55,South,180,2.6,0.0,68,0.00,,SCT045,0.00,VWS V13.01,2013-01-09 14:25:00,
2013-01-09 09:30:00,40.2,30.9,30.55,South,180,2.6,0.0,68,0.00,,SCT045,0.00,VWS V13.01,2013-01-09 14:30:00,
2013-01-09 09:35:00,40.2,30.5,30.55,South,180,2.6,0.0,68,0.00,,BKN038,0.00,VWS V13.01,2013-01-09 14:35:00,
2013-01-09 09:40:00,40.1,30.5,30.54,South,180,2.6,0.0,68,0.00,,BKN038,0.00,VWS V13.01,2013-01-09 14:40:00,
2013-01-09 09:45:00,40.1,30.5,30.54,South,180,2.6,0.0,68,0.00,,BKN041,0.00,VWS V13.01,2013-01-09 14:45:00,
2013-01-09 09:50:00,40.1,30.2,30.55,South,180,2.6,0.0,68,0.00,,OVC041,0.00,VWS V13.01,2013-01-09 14:50:00,
2013-01-09 09:55:00,39.9,30.2,30.55,SSE,158,2.6,0.0,68,0.00,,OVC041,0.00,VWS V13.01,2013-01-09 14:55:00,
2013-01-09 10:00:00,39.9,30.4,30.55,SSE,158,2.6,0.0,69,0.00,,OVC041,0.00,VWS V13.01,2013-01-09 15:00:00,
2013-01-09 10:05:00,40.2,30.9,30.55,SSE,158,2.6,0.0,69,0.00,,BKN038,0.00,VWS V13.01,2013-01-09 15:05:00,
2013-01-09 10:10:00,40.2,31.1,30.55,SSE,158,2.6,0.0,69,0.00,,OVC041,0.00,VWS V13.01,2013-01-09 15:10:00,
2013-01-09 10:16:00,40.8,31.1,30.55,SSE,158,2.6,0.0,68,0.00,,OVC041,0.00,VWS V13.01,2013-01-09 15:16:00,
2013-01-09 10:21:00,41.5,31.1,30.54,SSE,158,2.6,0.0,68,0.00,,OVC041,0.00,VWS V13.01,2013-01-09 15:21:00,
2013-01-09 10:26:00,41.9,32.2,30.54,SSE,158,2.6,0.0,68,0.00,,OVC041,0.00,VWS V13.01,2013-01-09 15:26:00,
2013-01-09 10:31:00,42.4,32.2,30.54,SSE,158,2.6,0.0,67,0.00,,OVC041,0.00,VWS V13.01,2013-01-09 15:31:00,
2013-01-09 10:36:00,42.4,32.4,30.54,SSE,158,2.6,0.0,67,0.00,,OVC025,0.00,VWS V13.01,2013-01-09 15:36:00,
2013-01-09 10:41:00,42.6,32.0,30.54,SSE,158,2.6,0.0,66,0.00,,OVC025,0.00,VWS V13.01,2013-01-09 15:41:00,
2013-01-09 10:46:00,42.6,32.0,30.54,SW,225,2.6,0.0,66,0.00,,OVC025,0.00,VWS V13.01,2013-01-09 15:46:00,
2013-01-09 10:51:00,42.6,32.0,30.54,SW,225,2.6,0.0,66,0.00,,OVC025,0.00,VWS V13.01,2013-01-09 15:51:00,
2013-01-09 10:56:00,42.6,32.0,30.54,SW,225,2.6,0.0,66,0.00,,OVC025,0.00,VWS V13.01,2013-01-09 15:56:00,
2013-01-09 11:01:00,42.6,31.9,30.54,WSW,248,2.6,0.0,66,0.00,,OVC025,0.00,VWS V13.01,2013-01-09 16:01:00,
2013-01-09 11:06:00,42.4,31.9,30.54,WSW,248,2.6,0.0,66,0.00,,OVC025,0.00,VWS V13.01,2013-01-09 16:06:00,
2013-01-09 11:11:00,42.4,32.0,30.54,WSW,248,2.6,0.0,66,0.00,,OVC025,0.00,VWS V13.01,2013-01-09 16:11:00,
2013-01-09 11:16:00,42.6,32.0,30.54,WSW,248,2.6,0.0,66,0.00,,OVC025,0.00,VWS V13.01,2013-01-09 16:16:00,
2013-01-09 11:21:00,42.6,32.0,30.54,WSW,248,2.6,0.0,66,0.00,,OVC025,0.00,VWS V13.01,2013-01-09 16:21:00,
2013-01-09 11:26:00,42.9,32.3,30.53,WSW,248,2.6,0.0,66,0.00,,OVC025,0.00,VWS V13.01,2013-01-09 16:26:00,
2013-01-09 11:31:00,42.9,32.5,30.53,WSW,248,2.6,0.0,66,0.00,,OVC025,0.00,VWS V13.01,2013-01-09 16:31:00,
2013-01-09 11:36:00,43.5,32.9,30.52,WSW,248,2.6,0.0,66,0.00,,OVC025,0.00,VWS V13.01,2013-01-09 16:36:00,
2013-01-09 11:41:00,43.8,33.2,30.53,SSW,202,2.6,0.0,66,0.00,,OVC025,0.00,VWS V13.01,2013-01-09 16:41:00,
2013-01-09 11:46:00,44.4,33.8,30.52,SSW,202,2.6,0.0,66,0.00,,OVC025,0.00,VWS V13.01,2013-01-09 16:46:00,
2013-01-09 11:51:00,44.4,33.8,30.51,SE,135,2.6,0.0,65,0.00,,OVC025,0.00,VWS V13.01,2013-01-09 16:51:00,
2013-01-09 11:56:00,44.6,33.6,30.52,SSE,158,2.6,0.0,65,0.00,,OVC025,0.00,VWS V13.01,2013-01-09 16:56:00,
2013-01-09 12:01:00,44.7,33.6,30.52,WSW,248,4.0,0.0,65,0.00,,OVC025,0.00,VWS V13.01,2013-01-09 17:01:00,
2013-01-09 12:06:00,44.4,33.7,30.52,West,270,2.0,0.0,64,0.00,,OVC025,0.00,VWS V13.01,2013-01-09 17:06:00,
2013-01-09 12:11:00,44.2,32.8,30.52,WSW,248,2.6,0.0,64,0.00,,OVC025,0.00,VWS V13.01,2013-01-09 17:11:00,
2013-01-09 12:17:00,44.0,32.4,30.52,WSW,248,2.6,0.0,64,0.00,,OVC025,0.00,VWS V13.01,2013-01-09 17:17:00,
2013-01-09 12:22:00,43.8,32.4,30.53,SW,225,2.6,0.0,65,0.00,,OVC025,0.00,VWS V13.01,2013-01-09 17:22:00,
2013-01-09 12:27:00,43.7,32.5,30.53,WSW,248,4.0,0.0,65,0.00,,OVC025,0.00,VWS V13.01,2013-01-09 17:27:00,
2013-01-09 12:32:00,43.5,32.5,30.52,SSW,202,4.0,0.0,65,0.00,,OVC023,0.00,VWS V13.01,2013-01-09 17:32:00,
2013-01-09 12:37:00,43.7,33.1,30.52,SSW,202,4.0,0.0,66,0.00,,OVC023,0.00,VWS V13.01,2013-01-09 17:37:00,
2013-01-09 12:42:00,43.8,33.2,30.52,SSW,202,4.0,0.0,66,0.00,,OVC023,0.00,VWS V13.01,2013-01-09 17:42:00,
2013-01-09 12:47:00,44.0,33.6,30.52,SSW,202,4.0,0.0,66,0.00,,OVC023,0.00,VWS V13.01,2013-01-09 17:47:00,
2013-01-09 12:52:00,44.4,34.1,30.52,SSW,202,0.2,0.0,67,0.00,,OVC024,0.00,VWS V13.01,2013-01-09 17:52:00,
2013-01-09 12:57:00,44.4,34.1,30.52,WSW,248,6.2,0.0,67,0.00,,OVC024,0.00,VWS V13.01,2013-01-09 17:57:00,
2013-01-09 13:02:00,44.4,34.7,30.53,WSW,248,6.2,0.0,67,0.00,,OVC024,0.00,VWS V13.01,2013-01-09 18:02:00,
2013-01-09 13:07:00,44.6,34.7,30.53,South,180,6.2,0.0,68,0.00,,OVC024,0.00,VWS V13.01,2013-01-09 18:07:00,
2013-01-09 13:12:00,44.6,34.9,30.52,South,180,6.2,0.0,68,0.00,,OVC024,0.00,VWS V13.01,2013-01-09 18:12:00,
2013-01-09 13:17:00,44.4,34.9,30.52,South,180,6.2,0.0,69,0.00,,OVC024,0.00,VWS V13.01,2013-01-09 18:17:00,
2013-01-09 13:22:00,44.2,34.9,30.52,South,180,6.2,0.0,69,0.00,,OVC024,0.00,VWS V13.01,2013-01-09 18:22:00,
2013-01-09 13:27:00,43.8,34.6,30.52,SSE,158,6.2,0.0,70,0.00,,OVC024,0.00,VWS V13.01,2013-01-09 18:27:00,
2013-01-09 13:32:00,43.8,34.4,30.52,SE,135,6.2,0.0,70,0.00,,,0.00,VWS V13.01,2013-01-09 18:32:00,
2013-01-09 13:37:00,43.3,34.3,30.52,SE,135,0.8,0.0,71,0.00,,,0.00,VWS V13.01,2013-01-09 18:37:00,
2013-01-09 13:41:00,43.1,34.5,30.52,SE,135,0.8,0.0,72,0.00,,,0.00,VWS V13.01,2013-01-09 18:41:00,
2013-01-09 13:42:00,43.3,34.7,30.52,SE,135,0.8,0.0,71,0.00,,,0.00,VWS V13.01,2013-01-09 18:42:00,
2013-01-09 13:44:00,43.3,34.5,30.52,ESE,112,0.8,0.0,71,0.00,,,0.00,VWS V13.01,2013-01-09 18:44:00,
2013-01-09 13:45:00,42.9,34.5,30.52,ESE,112,0.8,0.0,72,0.00,,,0.00,VWS V13.01,2013-01-09 18:45:00,
2013-01-09 13:48:00,42.9,34.7,30.51,SE,135,0.8,0.0,72,0.00,,,0.00,VWS V13.01,2013-01-09 18:48:00,
2013-01-09 13:49:00,43.1,34.5,30.51,SE,135,0.8,0.0,72,0.00,,,0.00,VWS V13.01,2013-01-09 18:49:00,
2013-01-09 13:50:00,42.9,34.7,30.52,SE,135,0.8,0.0,72,0.00,,OVC060,0.00,VWS V13.01,2013-01-09 18:50:00,
2013-01-09 13:55:00,43.1,35.0,30.52,SE,135,0.8,0.0,72,0.00,,OVC060,0.00,VWS V13.01,2013-01-09 18:55:00,
2013-01-09 14:00:00,43.1,35.0,30.52,SE,135,0.8,0.0,73,0.00,,OVC060,0.00,VWS V13.01,2013-01-09 19:00:00,
2013-01-09 14:05:00,43.1,35.6,30.52,SE,135,0.8,0.0,73,0.00,,OVC060,0.00,VWS V13.01,2013-01-09 19:05:00,
2013-01-09 14:10:00,43.5,35.6,30.52,SE,135,0.8,0.0,74,0.00,,OVC060,0.00,VWS V13.01,2013-01-09 19:10:00,
2013-01-09 14:15:00,43.8,36.4,30.52,SE,135,0.8,0.0,75,0.00,,OVC060,0.00,VWS V13.01,2013-01-09 19:15:00,
2013-01-09 14:20:00,44.4,36.4,30.52,SE,135,0.8,0.0,76,0.00,,OVC060,0.00,VWS V13.01,2013-01-09 19:20:00,
2013-01-09 14:26:00,44.4,37.8,30.52,SE,135,0.8,0.0,76,0.00,,OVC060,0.00,VWS V13.01,2013-01-09 19:26:00,
2013-01-09 14:31:00,45.3,37.8,30.52,SE,135,0.8,0.0,75,0.00,,OVC060,0.00,VWS V13.01,2013-01-09 19:31:00,
2013-01-09 14:36:00,45.5,38.4,30.52,SE,135,0.8,0.0,76,0.00,,-RA,0.00,VWS V13.01,2013-01-09 19:36:00,
2013-01-09 14:41:00,45.6,38.5,30.52,ESE,112,0.8,0.0,76,0.00,,-RA,0.00,VWS V13.01,2013-01-09 19:41:00,
2013-01-09 14:46:00,45.6,38.5,30.52,ESE,112,0.8,0.0,76,0.00,,-RA,0.00,VWS V13.01,2013-01-09 19:46:00,
2013-01-09 14:51:00,45.6,38.5,30.52,SSW,202,3.1,0.0,76,0.00,,OVC012,0.00,VWS V13.01,2013-01-09 19:51:00,
2013-01-09 14:56:00,45.6,38.5,30.52,SSE,158,1.3,0.0,76,0.00,,OVC012,0.00,VWS V13.01,2013-01-09 19:56:00,
2013-01-09 15:01:00,45.5,38.8,30.52,South,180,6.9,0.0,77,0.00,,OVC012,0.04,VWS V13.01,2013-01-09 20:01:00,
2013-01-09 15:06:00,45.5,38.7,30.51,SSE,158,0.8,0.0,77,0.00,,OVC012,0.00,VWS V13.01,2013-01-09 20:06:00,
2013-01-09 15:11:00,45.5,39.0,30.51,SSW,202,4.2,0.0,77,0.00,,OVC012,0.00,VWS V13.01,2013-01-09 20:11:00,
2013-01-09 15:16:00,45.3,39.4,30.53,SE,135,4.2,0.0,79,0.00,,OVC012,0.00,VWS V13.01,2013-01-09 20:16:00,
2013-01-09 15:21:00,45.3,39.2,30.53,SE,135,4.2,0.0,79,0.00,,OVC012,0.00,VWS V13.01,2013-01-09 20:21:00,
2013-01-09 15:26:00,45.3,39.5,30.53,SE,135,4.2,0.0,80,0.00,,OVC012,0.00,VWS V13.01,2013-01-09 20:26:00,
2013-01-09 15:31:00,45.1,39.3,30.53,SE,135,4.2,0.0,80,0.00,,OVC012,0.00,VWS V13.01,2013-01-09 20:31:00,
2013-01-09 15:36:00,45.1,39.6,30.53,SE,135,4.2,0.0,81,0.00,,-RA,0.00,VWS V13.01,2013-01-09 20:36:00,
2013-01-09 15:41:00,44.9,39.6,30.52,SSE,158,0.4,0.0,81,0.00,,-RA,0.00,VWS V13.01,2013-01-09 20:41:00,
2013-01-09 15:46:00,44.9,39.4,30.52,SSW,202,0.4,0.0,81,0.00,,-RA,0.00,VWS V13.01,2013-01-09 20:46:00,
2013-01-09 15:51:00,44.9,39.5,30.52,SW,225,0.8,0.0,81,0.00,,OVC110,0.00,VWS V13.01,2013-01-09 20:51:00,
2013-01-09 15:56:00,44.7,39.5,30.52,SW,225,0.8,0.0,82,0.00,,OVC110,0.00,VWS V13.01,2013-01-09 20:56:00,
2013-01-09 16:01:00,44.6,39.5,30.52,SSW,202,2.0,0.0,82,0.00,,OVC110,0.00,VWS V13.01,2013-01-09 21:01:00,
2013-01-09 16:06:00,44.6,39.8,30.51,SW,225,2.0,0.0,82,0.00,,OVC110,0.00,VWS V13.01,2013-01-09 21:06:00,
2013-01-09 16:11:00,44.6,39.8,30.51,SW,225,2.0,0.0,83,0.00,,OVC110,0.00,VWS V13.01,2013-01-09 21:11:00,
2013-01-09 16:17:00,44.6,39.9,30.51,SE,135,2.4,0.0,83,0.00,,OVC110,0.00,VWS V13.01,2013-01-09 21:17:00,
2013-01-09 16:22:00,44.4,40.1,30.52,SSW,202,0.8,0.0,84,0.00,,OVC110,0.00,VWS V13.01,2013-01-09 21:22:00,
2013-01-09 16:27:00,44.6,39.9,30.52,SSE,158,0.8,0.0,84,0.00,,OVC110,0.00,VWS V13.01,2013-01-09 21:27:00,
2013-01-09 16:32:00,44.4,39.9,30.52,South,180,0.8,0.0,84,0.00,,OVC012,0.00,VWS V13.01,2013-01-09 21:32:00,
2013-01-09 16:37:00,44.4,40.2,30.52,SSW,202,5.8,0.0,84,0.00,,OVC012,0.00,VWS V13.01,2013-01-09 21:37:00,
2013-01-09 16:42:00,44.4,40.2,30.52,South,180,2.9,0.0,85,0.00,,OVC012,0.00,VWS V13.01,2013-01-09 21:42:00,
2013-01-09 16:47:00,44.4,40.2,30.52,South,180,2.9,0.0,85,0.00,,OVC012,0.00,VWS V13.01,2013-01-09 21:47:00,
2013-01-09 16:52:00,44.4,40.2,30.52,South,180,2.0,0.0,85,0.00,,OVC012,0.00,VWS V13.01,2013-01-09 21:52:00,
2013-01-09 16:57:00,44.4,40.2,30.52,South,180,2.0,0.0,85,0.00,,OVC012,0.00,VWS V13.01,2013-01-09 21:57:00,
2013-01-09 17:02:00,44.2,40.0,30.52,SSW,202,2.0,0.0,85,0.00,,OVC012,0.00,VWS V13.01,2013-01-09 22:02:00,
2013-01-09 17:07:00,44.4,40.3,30.53,SW,225,2.0,0.0,86,0.00,,OVC012,0.00,VWS V13.01,2013-01-09 22:07:00,
2013-01-09 17:12:00,44.4,40.3,30.53,SSW,202,2.0,0.0,86,0.00,,OVC012,0.00,VWS V13.01,2013-01-09 22:12:00,
2013-01-09 17:17:00,44.2,40.3,30.53,SSW,202,2.0,0.0,86,0.00,,OVC012,0.00,VWS V13.01,2013-01-09 22:17:00,
2013-01-09 17:22:00,44.2,40.3,30.53,SSW,202,2.0,0.0,86,0.00,,OVC012,0.00,VWS V13.01,2013-01-09 22:22:00,
2013-01-09 17:27:00,44.2,40.3,30.53,SSW,202,2.0,0.0,86,0.00,,OVC012,0.00,VWS V13.01,2013-01-09 22:27:00,
2013-01-09 17:32:00,44.2,40.3,30.54,SW,225,2.0,0.0,86,0.00,,OVC012,0.00,VWS V13.01,2013-01-09 22:32:00,
2013-01-09 17:37:00,44.2,40.6,30.54,SW,225,2.0,0.0,86,0.00,,OVC012,0.00,VWS V13.01,2013-01-09 22:37:00,
2013-01-09 17:42:00,44.2,40.6,30.54,SW,225,0.6,0.0,86,0.00,,OVC012,0.00,VWS V13.01,2013-01-09 22:42:00,
2013-01-09 17:47:00,44.2,40.3,30.54,SW,225,0.6,0.0,87,0.00,,OVC012,0.00,VWS V13.01,2013-01-09 22:47:00,
2013-01-09 17:52:00,44.2,40.6,30.54,SW,225,0.6,0.0,86,0.00,,OVC010,0.00,VWS V13.01,2013-01-09 22:52:00,
2013-01-09 17:57:00,44.2,40.6,30.54,SSW,202,0.6,0.0,86,0.00,,OVC010,0.00,VWS V13.01,2013-01-09 22:57:00,
2013-01-09 18:02:00,44.2,40.6,30.54,SW,225,0.6,0.0,87,0.00,,OVC010,0.00,VWS V13.01,2013-01-09 23:02:00,
2013-01-09 18:07:00,44.2,40.6,30.54,SSW,202,0.6,0.0,87,0.00,,OVC010,0.00,VWS V13.01,2013-01-09 23:07:00,
2013-01-09 18:12:00,44.2,40.6,30.55,SW,225,2.9,0.0,87,0.00,,OVC010,0.00,VWS V13.01,2013-01-09 23:12:00,
2013-01-09 18:17:00,44.2,40.6,30.55,SW,225,2.9,0.0,87,0.00,,OVC010,0.00,VWS V13.01,2013-01-09 23:17:00,
2013-01-09 18:22:00,44.0,40.6,30.55,SW,225,0.8,0.0,87,0.00,,OVC010,0.00,VWS V13.01,2013-01-09 23:22:00,
2013-01-09 18:27:00,44.2,40.9,30.55,South,180,0.8,0.0,87,0.00,,OVC010,0.00,VWS V13.01,2013-01-09 23:27:00,
2013-01-09 18:32:00,44.2,40.6,30.54,South,180,0.8,0.0,88,0.00,,OVC014,0.00,VWS V13.01,2013-01-09 23:32:00,
2013-01-09 18:37:00,44.2,40.7,30.55,SSE,158,0.8,0.0,87,0.00,,OVC014,0.00,VWS V13.01,2013-01-09 23:37:00,
2013-01-09 18:42:00,44.0,40.7,30.55,SSE,158,0.8,0.0,88,0.00,,OVC014,0.00,VWS V13.01,2013-01-09 23:42:00,
2013-01-09 18:47:00,44.0,40.7,30.55,SSE,158,0.8,0.0,88,0.00,,OVC014,0.00,VWS V13.01,2013-01-09 23:47:00,
2013-01-09 18:52:00,44.0,40.7,30.56,WSW,248,0.8,0.0,88,0.00,,OVC008,0.00,VWS V13.01,2013-01-09 23:52:00,
2013-01-09 18:57:00,44.2,40.7,30.56,SW,225,0.2,0.0,89,0.00,,OVC008,0.00,VWS V13.01,2013-01-09 23:57:00,
2013-01-09 19:03:00,44.0,41.2,30.56,SSW,202,2.0,0.0,88,0.00,,OVC008,0.00,VWS V13.01,2013-01-10 00:03:00,
2013-01-09 19:08:00,44.2,41.2,30.57,WSW,248,2.0,0.0,89,0.00,,OVC008,0.00,VWS V13.01,2013-01-10 00:08:00,
2013-01-09 19:13:00,44.2,41.4,30.56,South,180,0.6,0.0,89,0.00,,OVC011,0.00,VWS V13.01,2013-01-10 00:13:00,
2013-01-09 19:18:00,44.2,41.4,30.57,South,180,0.6,0.0,89,0.00,,OVC011,0.00,VWS V13.01,2013-01-10 00:18:00,
2013-01-09 19:23:00,44.2,41.4,30.56,SW,225,0.6,0.0,89,0.00,,OVC011,0.00,VWS V13.01,2013-01-10 00:23:00,
2013-01-09 19:28:00,44.4,41.4,30.56,SW,225,0.6,0.0,89,0.00,,OVC011,0.00,VWS V13.01,2013-01-10 00:28:00,
2013-01-09 19:33:00,44.4,41.4,30.57,SW,225,0.6,0.0,89,0.00,,OVC011,0.00,VWS V13.01,2013-01-10 00:33:00,
2013-01-09 19:38:00,44.6,41.8,30.57,SW,225,1.1,0.0,90,0.00,,OVC011,0.00,VWS V13.01,2013-01-10 00:38:00,
2013-01-09 19:43:00,44.6,41.8,30.57,SW,225,1.1,0.0,90,0.00,,OVC011,0.00,VWS V13.01,2013-01-10 00:43:00,
2013-01-09 19:48:00,44.6,42.0,30.58,SW,225,3.5,0.0,90,0.00,,OVC011,0.00,VWS V13.01,2013-01-10 00:48:00,
2013-01-09 19:53:00,44.6,42.0,30.58,West,270,0.6,0.0,90,0.00,,OVC006,0.00,VWS V13.01,2013-01-10 00:53:00,
2013-01-09 19:58:00,44.9,42.0,30.58,West,270,0.6,0.0,90,0.00,,OVC006,0.00,VWS V13.01,2013-01-10 00:58:00,
2013-01-09 20:03:00,44.9,42.3,30.58,West,270,0.6,0.0,90,0.00,,OVC006,0.00,VWS V13.01,2013-01-10 01:03:00,
2013-01-09 20:08:00,44.9,42.0,30.58,NW,315,0.6,0.0,90,0.00,,OVC006,0.00,VWS V13.01,2013-01-10 01:08:00,
2013-01-09 20:13:00,44.6,41.7,30.58,NW,315,1.3,0.0,90,0.00,,OVC006,0.00,VWS V13.01,2013-01-10 01:13:00,
2013-01-09 20:18:00,44.4,41.7,30.59,NW,315,1.3,0.0,90,0.00,,OVC006,0.00,VWS V13.01,2013-01-10 01:18:00,
2013-01-09 20:23:00,44.4,41.7,30.59,NW,315,1.3,0.0,90,0.00,,OVC006,0.00,VWS V13.01,2013-01-10 01:23:00,
2013-01-09 20:28:00,44.4,41.5,30.59,NW,315,1.3,0.0,90,0.00,,OVC006,0.00,VWS V13.01,2013-01-10 01:28:00,
2013-01-09 20:33:00,44.4,41.1,30.59,NW,315,1.3,0.0,90,0.00,,,0.00,VWS V13.01,2013-01-10 01:33:00,
2013-01-09 20:38:00,44.4,41.1,30.59,NW,315,1.3,0.0,90,0.00,,,0.00,VWS V13.01,2013-01-10 01:38:00,
2013-01-09 20:43:00,44.4,40.8,30.59,West,270,1.3,0.0,90,0.00,,OVC029,0.00,VWS V13.01,2013-01-10 01:43:00,
2013-01-09 20:48:00,43.5,40.6,30.60,West,270,1.3,0.0,90,0.00,,OVC029,0.00,VWS V13.01,2013-01-10 01:48:00,
2013-01-09 20:53:00,43.5,40.6,30.60,West,270,1.3,0.0,90,0.00,,SCT029,0.00,VWS V13.01,2013-01-10 01:53:00,
2013-01-09 20:58:00,43.3,40.6,30.60,NW,315,1.3,0.0,90,0.00,,SCT029,0.00,VWS V13.01,2013-01-10 01:58:00,
2013-01-09 21:03:00,42.9,39.9,30.60,WNW,292,1.3,0.0,89,0.00,,SCT029,0.00,VWS V13.01,2013-01-10 02:03:00,
2013-01-09 21:08:00,42.9,39.6,30.60,NW,315,1.3,0.0,88,0.00,,SCT029,0.00,VWS V13.01,2013-01-10 02:08:00,
2013-01-09 21:13:00,42.9,39.0,30.60,NNW,338,1.5,0.0,87,0.00,,SCT029,0.00,VWS V13.01,2013-01-10 02:13:00,
2013-01-09 21:18:00,42.9,38.4,30.60,NNW,338,0.8,0.0,87,0.00,,SCT029,0.00,VWS V13.01,2013-01-10 02:18:00,
2013-01-09 21:23:00,42.9,38.1,30.60,NW,315,3.3,0.0,83,0.00,,SCT029,0.00,VWS V13.01,2013-01-10 02:23:00,
2013-01-09 21:28:00,42.9,37.8,30.59,NW,315,3.3,0.0,83,0.00,,SCT029,0.00,VWS V13.01,2013-01-10 02:28:00,
2013-01-09 21:33:00,42.6,37.2,30.60,NW,315,2.0,0.0,81,0.00,,CLR,0.00,VWS V13.01,2013-01-10 02:33:00,
2013-01-09 21:38:00,42.6,37.2,30.60,NW,315,1.7,0.0,80,0.00,,CLR,0.00,VWS V13.01,2013-01-10 02:38:00,
2013-01-09 21:43:00,42.6,36.5,30.60,NW,315,0.4,0.0,81,0.00,,CLR,0.00,VWS V13.01,2013-01-10 02:43:00,
2013-01-09 21:48:00,42.6,36.4,30.59,NW,315,0.4,0.0,81,0.00,,CLR,0.00,VWS V13.01,2013-01-10 02:48:00,
2013-01-09 21:53:00,42.8,35.9,30.60,NW,315,0.4,0.0,78,0.00,,CLR,0.00,VWS V13.01,2013-01-10 02:53:00,
2013-01-09 21:58:00,42.6,35.9,30.59,NW,315,0.4,0.0,77,0.00,,CLR,0.00,VWS V13.01,2013-01-10 02:58:00,
2013-01-09 22:03:00,42.4,35.4,30.60,NW,315,0.4,0.0,76,0.00,,CLR,0.00,VWS V13.01,2013-01-10 03:03:00,
2013-01-09 22:08:00,42.0,35.3,30.59,NW,315,0.4,0.0,76,0.00,,CLR,0.00,VWS V13.01,2013-01-10 03:08:00,
2013-01-09 22:13:00,41.9,34.7,30.60,NW,315,0.4,0.0,77,0.00,,CLR,0.00,VWS V13.01,2013-01-10 03:13:00,
2013-01-09 22:18:00,41.7,34.5,30.60,NW,315,0.4,0.0,76,0.00,,CLR,0.00,VWS V13.01,2013-01-10 03:18:00,
2013-01-09 22:23:00,41.5,34.5,30.60,NW,315,0.4,0.0,76,0.00,,CLR,0.00,VWS V13.01,2013-01-10 03:23:00,
2013-01-09 22:28:00,41.5,34.4,30.60,NW,315,0.4,0.0,75,0.00,,CLR,0.00,VWS V13.01,2013-01-10 03:28:00,
2013-01-09 22:33:00,41.9,34.6,30.61,NW,315,0.4,0.0,75,0.00,,CLR,0.00,VWS V13.01,2013-01-10 03:33:00,
2013-01-09 22:38:00,41.9,33.9,30.60,NNW,338,0.4,0.0,75,0.00,,CLR,0.00,VWS V13.01,2013-01-10 03:38:00,
2013-01-09 22:43:00,41.9,33.5,30.61,NNW,338,0.4,0.0,73,0.00,,CLR,0.00,VWS V13.01,2013-01-10 03:43:00,
2013-01-09 22:48:00,41.9,33.5,30.61,NNW,338,0.4,0.0,72,0.00,,CLR,0.00,VWS V13.01,2013-01-10 03:48:00,
2013-01-09 22:53:00,41.9,33.5,30.61,NNW,338,0.4,0.0,72,0.00,,CLR,0.00,VWS V13.01,2013-01-10 03:53:00,
2013-01-09 22:58:00,41.9,33.3,30.61,NW,315,0.4,0.0,72,0.00,,CLR,0.00,VWS V13.01,2013-01-10 03:58:00,
2013-01-09 23:03:00,41.7,33.2,30.61,NW,315,0.4,0.0,72,0.00,,CLR,0.00,VWS V13.01,2013-01-10 04:03:00,
2013-01-09 23:08:00,41.5,33.0,30.61,NW,315,0.4,0.0,72,0.00,,CLR,0.00,VWS V13.01,2013-01-10 04:08:00,
2013-01-09 23:13:00,41.3,33.1,30.62,NW,315,0.4,0.0,72,0.00,,CLR,0.00,VWS V13.01,2013-01-10 04:13:00,
2013-01-09 23:18:00,41.0,32.8,30.61,NW,315,0.4,0.0,73,0.00,,CLR,0.00,VWS V13.01,2013-01-10 04:18:00,
2013-01-09 23:23:00,40.8,32.8,30.61,NW,315,0.4,0.0,73,0.00,,CLR,0.00,VWS V13.01,2013-01-10 04:23:00,
2013-01-09 23:28:00,40.6,32.6,30.61,NW,315,2.2,0.0,73,0.00,,CLR,0.00,VWS V13.01,2013-01-10 04:28:00,
2013-01-09 23:33:00,40.6,32.6,30.61,NW,315,2.2,0.0,73,0.00,,CLR,0.00,VWS V13.01,2013-01-10 04:33:00,
2013-01-09 23:38:00,40.6,32.4,30.61,NW,315,2.2,0.0,73,0.00,,CLR,0.00,VWS V13.01,2013-01-10 04:38:00,
2013-01-09 23:43:00,40.2,32.2,30.61,ENE,68,2.2,0.0,73,0.00,,CLR,0.00,VWS V13.01,2013-01-10 04:43:00,
2013-01-09 23:48:00,40.2,32.2,30.62,ENE,68,2.2,0.0,73,0.00,,CLR,0.00,VWS V13.01,2013-01-10 04:48:00,
2013-01-09 23:53:00,40.2,32.2,30.61,ENE,68,2.2,0.0,73,0.00,,CLR,0.00,VWS V13.01,2013-01-10 04:53:00,
2013-01-09 23:58:00,40.1,32.3,30.62,ENE,68,2.2,0.0,73,0.00,,CLR,0.00,VWS V13.01,2013-01-10 04:58:00,